sat.trackr.live / text

‹ back to catalog

STARLINK-6110

NORAD 56907 · 2023-083AH

PAYLOAD ACTIVE UNKNOWN

§ Identity

Operator
Country
US
Launch date
2023-06-12
Launch site
AFETR
Launch vehicle
Mass (kg)
RCS (m²)

Purposes: comms

External: N2YO · Heavens-Above · Gunter

§ Orbital elements

Epoch: 2026-05-24T22:35:29.277312Z

Period
94.27 min
Inclination
43.0040°
Eccentricity
0.0001404
Mean motion
15.27577171 rev/d
Perigee alt
482.1 km
Apogee alt
484.0 km
Semi-major
6,861.2 km
B*
2.1707e-5
RAAN
359.7305°
Arg perigee
264.5342°
Mean anomaly
95.5350°
Rev number
16,357

§ Raw data

STARLINK-61101 56907U 23083AH  26144.94131108  .00000335  00000+0  21707-4 0  99982 56907  43.0040 359.7305 0001404 264.5342  95.5350 15.27577171163579

JSON: /api/v1/satellites/56907 · /tle

For live sub-satellite position, see the globe view (requires WebGL).

§ Visibility from observer

Set your observer location to see the next 7 days of passes ≥ 10°. The values pass through the URL so the page stays shareable.

No JS? Fill the form by hand. The geolocation button needs JavaScript.